Location: Bacea
(45.9500°N, 22.6667°E)
Time: 05:55:53
(UTC+00:00)

Cosmos 1953 - Pass Details

Date: 31 May 2022
Orbit: 533 x 555 km, 82.5° (Epoch: 03 July)

Event Time Altitude Azimuth Distance (km) Brightness Sun altitude
Rises 23:09:16 0° 340° (NNW) 2,718 6.8 -21.4°
Reaches altitude 10° 23:11:41 10° 327° (NNW) 1,816 5.6 -21.3°
Enters shadow 23:15:00 26° 271° (W) 1,092 3.7 -21.2°
